Location: Esp�n
(42.4593°N, 0.2047°W)
Time: 11:45:50
(UTC+00:00)

CZ-2D R/B - Visible Passes

Search period start: 01 October 2020 00:00
Search period end: 11 October 2020 00:00
Orbit: 791 x 845 km, 98.7° (Epoch: 30 September)

Date Brightness Start Highest point End Pass type
(mag) Time Alt. Az. Time Alt. Az. Time Alt. Az.
01 Oct 4.6 02:45:59 10° N 02:46:26 12° NNW 02:46:26 12° NNW visible
02 Oct 4.7 02:24:21 10° N 02:24:48 12° N 02:24:48 12° N visible
03 Oct 4.8 02:02:53 10° N 02:03:10 12° N 02:03:10 12° N visible
